Regional Weather Roundup
Issued by NWS

Home | Current Version | Previous Version | Graphics & Text | Print | Product List | Glossary On
Versions: 1 2 3 4 5 6 7 8 9 10 11 12 13 14 15 16 17 18 19 20 21 22 23 24 25 26 27
000
ASUS45 KTFX 231910
RWRMT
MONTANA REGIONAL WEATHER ROUNDUP
NATIONAL WEATHER SERVICE GREAT FALLS MT
1200 PM MST THU FEB 23 2017

NOTE: "FAIR" INDICATES FEW OR NO CLOUDS BELOW 12000 FEET WITH NO
SIGNIFICANT WEATHER AND/OR OBSTRUCTIONS TO VISIBILITY.

MTZ001>007-043-232000-
WEST OF THE DIVIDE

CITY           SKY/WX    TMP DP  RH WIND       PRES   REMARKS
KALISPELL      PTSUNNY   35  22  58 CALM      29.98S
MISSOULA       CLOUDY    35  24  64 N7        29.95S WCI  29
BUTTE          CLOUDY    27  13  55 CALM      29.81S
MULLAN PASS    CLOUDY    22  18  85 VRB3      29.86S
ANACONDA         N/A     28  14  54 N12G20    29.84F WCI  18
DEER LODGE       N/A     30  16  55 NE13G18   29.89S WCI  20
EUREKA           N/A     28  21  74 NW5       30.05S
HAMILTON         N/A     34  19  55 N13G21    29.89F WCI  25
LIBBY            N/A     34  23  64 CALM      30.04S
PLAINS           N/A     35  25  67 CALM      30.01
RONAN            N/A     31  23  72 W5        30.01S
$$

MTZ008-052>055-232000-
SOUTHWEST MONTANA

CITY           SKY/WX    TMP DP  RH WIND       PRES   REMARKS
BOZEMAN        CLOUDY    34  24  67 CALM      29.83S
DILLON         CLOUDY    30  16  56 NE18      29.76S WCI  18
W YELLOWSTONE  CLOUDY    25  10  54 NE12      29.69S WCI  14
ENNIS          CLOUDY    30  21  69 N29G36    29.79F WCI  15
THREE FORKS      N/A     35  35 100 N12       29.85S WCI  27
TWIN BRIDGES     N/A     32  17  54 N21       29.79S WCI  20
$$

MTZ009-010-012-014-046-048-049-054-232000-
EAST SLOPES AND CENTRAL MONTANA

CITY           SKY/WX    TMP DP  RH WIND       PRES   REMARKS
CUT BANK       CLOUDY    23  18  81 CALM      30.00F
GREAT FALLS    CLOUDY    26  22  84 NE13      29.98S WCI  15
MALMSTROM AFB  CLOUDY    27  25  93 NE13      30.00S WCI  16
HELENA         CLOUDY    34  21  59 N12       29.90F WCI  25
AUGUSTA        FLURRIES  23  20  89 N18       29.95S WCI   8
BOWMANS CRNR   FLURRIES  22  22  98 NE10      29.94R WCI  11
CHOTEAU          N/A     25  21  86 N13       30.01S WCI  13
CONRAD           N/A     25  22  88 N5        30.03S
POWER          CLOUDY    24  23  98 NE9       29.98S WCI  14
RAYNESFORD     CLOUDY    27  21  79 E6        29.95S WCI  20
ULM            CLOUDY    26  23  91 MISG      29.98S
$$

MTZ011-013-016-021-045-047-050-051-232000-
NORTH CENTRAL MONTANA

CITY           SKY/WX    TMP DP  RH WIND       PRES   REMARKS
HAVRE          CLOUDY    26  22  84 NE14      30.07S WCI  14
LEWISTOWN      CLOUDY    25  18  74 E12       29.94S WCI  14
N BAR RANCH    CLOUDY    23  18  80 NE6       29.96R WCI  16
CHINOOK          N/A     28  21  74 NE6       30.08S WCI  22
DENTON         PTSUNNY   27  23  85 NE14G21   29.94S WCI  15
FORT BENTON      N/A     28  23  80 MISG        N/A
GEYSER         PTSUNNY   26  21  84 NE8       29.95S WCI  17
GRASS RANGE    FLURRIES  25  22  87 E3        29.94S
JUDITH GAP     FLURRIES  22  20  93 N22       29.89S WCI   6
ROY            PTSUNNY   26  23  88 MISG      29.97S
STANFORD       FLURRIES  24  21  91 N9        29.93F WCI  14
WINIFRED       PTSUNNY   26  23  87 NE9       29.97S WCI  17
$$

MTZ017>020-022>027-061-062-232000-
NORTHEAST MONTANA

CITY           SKY/WX    TMP DP  RH WIND       PRES   REMARKS
GLASGOW        CLOUDY    28  22  78 E16       30.06S WCI  16
JORDAN           N/A     32  26  78 NE10      30.01F WCI  24
SIDNEY         CLOUDY    28  25  88 NE9       30.07R WCI  19
WOLF POINT     CLOUDY    28  21  75 E14       30.09S WCI  17
PLENTYWOOD       N/A     25  16  68 NE10      30.08F WCI  15
POPLAR           N/A     25  19  80 NE15      30.09R WCI  12
SCOBEY           N/A     25  14  62 N12       30.05  WCI  14
$$

MTZ028>42-056>058-232000-
SOUTHCENTRAL AND SOUTHEAST MONTANA

CITY           SKY/WX    TMP DP  RH WIND       PRES   REMARKS
BAKER          CLOUDY    30  23  75 E10       29.97R WCI  21
BILLINGS       FLURRIES  27  21  78 NE12      29.94S WCI  17
LIVINGSTON     LGT SNOW  27  22  81 E16       29.85R VSB 1   WCI  15
MILES CITY     CLOUDY    32  22  66 NE12      29.99R WCI  23
BIG TIMBER     CLOUDY    27  25  93 E13       29.91R WCI  16
EKALAKA          N/A     27  21  77 NE8       29.91  WCI  19
FORSYTH          N/A     30  23  74 E12       29.98S WCI  21
HARLOWTON      CLOUDY    24  19  81 NE14      29.91R WCI  12
LAUREL           N/A     27  19  71 CALM      29.92S
$$

REGIONAL REPORTS...DAKOTAS

CITY           SKY/WX    TMP DP  RH WIND       PRES   REMARKS
WILLISTON      CLOUDY    27  24  89 E9        30.07F WCI  18
MINOT          CLOUDY    25  16  68 N16       30.08S WCI  12
DICKINSON      CLOUDY    27  24  89 NE20      29.96S FOG     WCI  13
BEACH            N/A    N/A N/A N/A MISG        N/A
CROSBY         PTSUNNY   25  18  74 N7        30.13R WCI  17
TIOGA          CLOUDY    23  18  80 NE9       30.08S WCI  13
WATFORD CITY   CLOUDY    25  25 100 E12       30.06F WCI  14
BISMARCK       CLOUDY    31  25  78 NE8       30.02S WCI  23
GRAND FORKS    CLOUDY    27  16  63 N16       30.07F WCI  15
FARGO          CLOUDY    31  23  72 N16       30.02F WCI  20
BUFFALO SD       N/A     30  22  72 E15       29.87S WCI  19
RAPID CITY     LGT SNOW  26  22  84 NE12      29.89S VSB 1   WCI  16
$$

REGIONAL REPORTS...WYOMING/IDAHO/WASHINGTON

CITY           SKY/WX    TMP DP  RH WIND       PRES   REMARKS
GILLETTE       CLOUDY    27  24  89 N20       29.81S FOG     WCI  13
SHERIDAN       CLOUDY    27  23  85 NE9       29.88S WCI  18
BUFFALO WY     LGT SNOW  26  21  81 N17G23    29.82F VSB 3/4 WCI  13
CODY           CLOUDY    24  19  81 N17G28    29.81R WCI  11
YELLOWSTONE LA   N/A     20   7  57 MISG      29.67R
IDAHO FALLS    LGT SNOW  27  25  92 SW15      29.72R FOG     WCI  15
SALMON         CLOUDY    34  19  55 N8        29.80S WCI  27
BOISE          FLURRIES  33  24  69 NW24G32   29.91R WCI  20
SPOKANE        PTSUNNY   27  25  92 CALM      30.08R
$$

REGIONAL REPORTS...ALBERTA

CITY           SKY/WX    TMP DP  RH WIND       PRES   REMARKS
EDMONTON       PTSUNNY   25  16  68 W3        30.07S
CALGARY        PTSUNNY   27  19  74 S10       29.99F WCI  17
LETHBRIDGE     PTSUNNY   27  18  69 SE6       30.06F WCI  20
MEDICINE HAT   MOSUNNY   23  18  80 S5        30.11S
WATERTON GATE    N/A     21  16  79 NE12        N/A  WCI   9
CARDSTON         N/A     27  18  69 SE6         N/A  WCI  20
MILK RIVER       N/A     25  19  80 NE6         N/A  WCI  18
ONEFOUR          N/A     21  14  73 NE14        N/A  WCI   8
$$

REGIONAL REPORTS...SASKATCHEWAN

CITY           SKY/WX    TMP DP  RH WIND       PRES   REMARKS
SWIFT CURRENT  FLURRIES  23  16  74 NW10      30.06F WCI  12
REGINA         FLURRIES  28  18  64 NW15      30.08F WCI  17
SASKATOON      PTSUNNY   23  12  63 NW15      30.13S WCI  10
CYPRESS HILLS    N/A     18  12  79 E6          N/A  WCI   9
VAL MARIE        N/A     25  18  74 NE13        N/A  WCI  13
ROCKGLEN         N/A     21  19  93 NE6         N/A  WCI  14
ASSINIBOIA       N/A     25  16  68 NW5         N/A
$$




USA.gov is the U.S. government's official web portal to all federal, state and local government web resources and services.